[[{"header":{"parameterUnit":"m.s-1","parameterCategory":1,"la1":30.2991,"la2":30.254,"lo1":-89.0895,"lo2":-89.0444,"dy":0.0017,"dx":0.0017,"nx":28,"ny":28,"refTime":"2025-02-09T03:00:00:Z","depth":0,"parameterNumber":2,"parameterNumberName":"U-component_of_WINDS"},"data":[0,0,0,0,0,0,0,0,0,0,0,0,0,0,0,0,0,0,0,0,0,0,0,0,0,0,0,0,0,0,0,0,0,0,0,0,0,0,0,0,0,0,0,0,0,0,0,0,0,0,0,0,0,0,0,0,0,0,-1.0585,-1.0584,0,-1.0524,-1.0523,-1.0522,-1.0465,-1.0464,-1.0463,-1.0463,-1.0399,-1.0398,-1.0397,0,0,0,0,0,0,0,0,0,0,0,0,0,-1.0652,-1.0651,-1.0585,-1.0584,-1.0584,-1.0524,-1.0523,-1.0522,-1.0465,-1.0464,-1.0463,-1.0462,-1.0399,-1.0398,-1.0397,0,0,0,0,0,0,0,0,0,0,0,0,0,-1.061,-1.0651,-1.0585,-1.0548,-1.0544,-1.0524,-1.0523,-1.0522,-1.0465,-1.0464,-1.0463,-1.0462,-1.04,-1.0398,-1.0397,-1.0408,0,0,-1.0392,-1.0391,0,0,0,0,0,0,0,0,-1.0613,-1.0608,-1.0554,-1.055,-1.0546,-1.0501,-1.0523,-1.0484,-1.0465,-1.0495,-1.0463,-1.0461,-1.0434,-1.0429,-1.042,-1.0405,-1.0402,-1.0392,-1.0391,-1.039,-1.039,0,0,0,0,0,0,0,-1.0616,-1.061,-1.0561,-1.0553,-1.0548,-1.0534,-1.0527,-1.0515,-1.0471,-1.0492,-1.0488,-1.0482,-1.0431,-1.0422,-1.0418,-1.0402,-1.0392,-1.039,-1.0389,-1.0389,-1.0393,-1.0394,0,0,0,0,0,0,-1.0625,-1.0613,-1.0563,-1.0559,-1.0577,-1.0534,-1.0526,-1.0516,-1.0471,-1.0463,-1.0483,-1.0479,-1.0425,-1.042,-1.0416,-1.0425,-1.039,-1.0389,-1.0388,-1.0392,-1.0393,-1.0394,0,0,0,0,0,0,-1.0626,-1.0621,-1.0565,-1.0585,-1.0577,-1.0534,-1.0524,-1.0516,-1.0506,-1.0464,-1.0455,-1.0481,-1.0424,-1.0418,-1.041,-1.0423,-1.0388,-1.0386,-1.0391,-1.0392,-1.0394,-1.0446,0,0,0,0,0,0,-1.0628,-1.0622,-1.0626,-1.0585,-1.0576,-1.0561,-1.0524,-1.0515,-1.0504,-1.0499,-1.046,-1.0452,-1.0422,-1.0413,-1.0409,-1.042,-1.0385,-1.0389,-1.0391,-1.0393,-1.0443,-1.0449,-1.0455,0,0,0,0,0,-1.0631,-1.0643,-1.0626,-1.062,-1.058,-1.0562,-1.0557,-1.0522,-1.0505,-1.0508,-1.0481,-1.0454,-1.0422,-1.0413,-1.0408,-1.0418,-1.0388,-1.0391,-1.0393,-1.0441,-1.0448,-1.0455,0,0,0,0,0,0,-1.0685,-1.0637,-1.0618,-1.0617,-1.0594,-1.0553,-1.0556,-1.0531,-1.0513,-1.0509,-1.0467,-1.0458,-1.0456,-1.0436,-1.0427,-1.0427,-1.0402,-1.0403,-1.0439,-1.0446,-1.0452,-1.0456,-1.0384,0,0,0,0,0,-1.0697,-1.0687,-1.0645,-1.0648,-1.0638,-1.0599,-1.059,-1.0566,-1.054,-1.053,-1.0502,-1.0479,-1.0463,-1.0454,-1.0437,-1.0441,-1.0431,-1.0445,-1.0451,-1.0456,-1.0458,-1.0457,-1.0463,-1.0402,-1.0402,-1.0402,0,0,-1.0722,-1.0694,-1.069,-1.0659,-1.0638,-1.0628,-1.0591,-1.0582,-1.0574,-1.0529,-1.052,-1.0499,-1.0469,-1.0467,-1.0465,-1.0451,-1.0472,-1.0459,-1.0463,-1.0462,-1.046,-1.0466,-1.0471,-1.0404,-1.0403,-1.0403,0,0,-1.0761,-1.0739,-1.0739,-1.0719,-1.0689,-1.0663,-1.0663,-1.0626,-1.061,-1.0601,-1.0566,-1.0556,-1.0531,-1.0511,-1.0498,-1.053,-1.0504,-1.0526,-1.0556,-1.0556,-1.0561,-1.0565,-1.0575,-1.058,-1.0528,-1.0528,-1.0528,0,-1.0795,-1.0778,-1.0742,-1.0735,-1.0722,-1.0681,-1.0681,-1.0663,-1.0629,-1.0621,-1.0606,-1.0573,-1.0551,-1.0543,-1.0551,-1.0542,-1.0541,-1.053,-1.0563,-1.0567,-1.057,-1.0579,-1.0584,-1.0531,-1.053,-1.053,-1.053,0,-1.0821,-1.0811,-1.0814,-1.0782,-1.077,-1.0767,-1.073,-1.0722,-1.0699,-1.0674,-1.0665,-1.0637,-1.0614,-1.0611,-1.0588,-1.06,-1.0592,-1.0571,-1.0544,-1.0579,-1.0587,-1.0591,-1.0535,-1.0534,-1.0533,-1.0532,0,0,-1.0892,-1.084,-1.0842,-1.0827,-1.0791,-1.0782,-1.0776,-1.0754,-1.0748,-1.0726,-1.072,-1.07,-1.068,-1.0665,-1.064,-1.064,-1.0667,-1.0618,-1.0617,-1.0627,-1.0677,-1.0692,-1.0697,-1.065,-1.065,-1.0651,-1.0679,0,-1.0924,-1.0912,-1.0879,-1.0877,-1.0866,-1.0827,-1.0823,-1.08,-1.0777,-1.0765,-1.074,-1.0726,-1.0701,-1.0692,-1.0691,-1.0664,-1.0676,-1.0661,-1.0643,-1.0642,-1.065,-1.0702,-1.0718,-1.0746,-1.0682,-1.0683,-1.0683,0,-1.0959,-1.094,-1.0937,-1.0901,-1.0895,-1.0891,-1.0868,-1.0857,-1.0831,-1.0814,-1.0798,-1.077,-1.0762,-1.0739,-1.0726,-1.0717,-1.0708,-1.0694,-1.0694,-1.069,-1.0664,-1.0698,-1.0754,-1.0758,-1.0688,-1.0688,-1.0687,0,-1.101,-1.0983,-1.0977,-1.0966,-1.0924,-1.0922,-1.0905,-1.0877,-1.0866,-1.0846,-1.0838,-1.0818,-1.0806,-1.0791,-1.0758,-1.0744,-1.0749,-1.0723,-1.0735,-1.0735,-1.0736,-1.0736,-1.0791,-1.0733,-1.0733,-1.0733,-1.0732,0,-1.1048,-1.1048,-1.0999,-1.0996,-1.0994,-1.0957,-1.0956,-1.0935,-1.0911,-1.0902,-1.0867,-1.086,-1.0818,-1.0806,-1.078,-1.0774,-1.0769,-1.0755,-1.0748,-1.0757,-1.0759,-1.075,-1.0746,-1.0734,-1.0733,-1.0733,-1.0733,0,-1.1104,-1.1072,-1.1063,-1.1024,-1.1015,-1.1015,-1.0981,-1.0976,-1.0952,-1.0942,-1.0937,-1.0899,-1.0883,-1.0849,-1.0824,-1.0807,-1.0806,-1.0794,-1.0815,-1.081,-1.0823,-1.0822,-1.0872,-1.0877,-1.0817,-1.0818,-1.0819,0,-1.113,-1.1128,-1.109,-1.1082,-1.1066,-1.1053,-1.1041,-1.1005,-1.0994,-1.0964,-1.0963,-1.0944,-1.0927,-1.0903,-1.0872,-1.0853,-1.084,-1.0859,-1.0836,-1.0846,-1.0838,-1.0838,-1.0838,-1.0863,-1.0864,-1.0865,-1.0865,0,-1.1179,-1.1164,-1.1148,-1.1127,-1.1114,-1.1096,-1.1076,-1.1071,-1.103,-1.102,-1.1003,-1.099,-1.0964,-1.0946,-1.0922,-1.0903,-1.0877,-1.0873,-1.0874,-1.0883,-1.0895,-1.0887,-1.0827,-1.0871,-1.0871,-1.087,-1.087,-1.087,-1.122,-1.1217,-1.1189,-1.1173,-1.1154,-1.1136,-1.1129,-1.1104,-1.109,-1.1066,-1.1046,-1.1031,-1.1004,-1.0969,-1.0952,-1.094,-1.0927,-1.0929,-1.0929,-1.093,-1.0934,-1.0898,-1.0935,-1.0935,-1.0935,-1.0935,-1.0934,0,-1.1267,-1.1247,-1.1233,-1.1206,-1.1193,-1.1171,-1.1147,-1.1138,-1.1125,-1.1103,-1.1087,-1.1067,-1.1049,-1.1018,-1.0997,-1.0993,-1.0981,-1.0989,-1.0988,-1.0984,-1.0947,-1.0947,-1.0999,-1.0999,-1.0999,-1.0999,-1.0999,-1.0999,-1.1289,-1.1282,-1.1263,-1.1247,-1.1227,-1.1212,-1.12,-1.1183,-1.1165,-1.1145,-1.113,-1.111,-1.1084,-1.1061,-1.1043,-1.1034,-1.1028,-1.104,-1.1027,-1.0993,-1.0987,-1.0981,-1.0981,-1.1039,-1.1039,-1.1065,-1.1065,-1.1065]},{"header":{"parameterUnit":"m.s-1","parameterCategory":1,"la1":30.2991,"la2":30.254,"lo1":-89.0895,"lo2":-89.0444,"dy":0.0017,"dx":0.0017,"nx":28,"ny":28,"refTime":"2025-02-09T03:00:00:Z","depth":0,"parameterNumber":3,"parameterNumberName":"V-component_of_WINDS"},"data":[0,0,0,0,0,0,0,0,0,0,0,0,0,0,0,0,0,0,0,0,0,0,0,0,0,0,0,0,0,0,0,0,0,0,0,0,0,0,0,0,0,0,0,0,0,0,0,0,0,0,0,0,0,0,0,0,0,0,1.6289,1.6288,0,1.6224,1.6223,1.6222,1.6176,1.6176,1.6176,1.6175,1.6106,1.6104,1.6103,0,0,0,0,0,0,0,0,0,0,0,0,0,1.6374,1.6372,1.6289,1.6288,1.6287,1.6224,1.6223,1.6222,1.6176,1.6176,1.6175,1.6175,1.6106,1.6104,1.6103,0,0,0,0,0,0,0,0,0,0,0,0,0,1.6325,1.6372,1.6289,1.6257,1.6254,1.6224,1.6223,1.6222,1.6176,1.6176,1.6175,1.6175,1.6107,1.6105,1.6102,1.6099,0,0,1.6095,1.6094,0,0,0,0,0,0,0,0,1.6328,1.6322,1.6263,1.6259,1.6255,1.6208,1.6227,1.618,1.6177,1.6206,1.6175,1.6175,1.614,1.6135,1.6124,1.6095,1.6092,1.6095,1.6094,1.6093,1.6092,0,0,0,0,0,0,0,1.6332,1.6325,1.6263,1.6262,1.6257,1.6246,1.6238,1.6218,1.6176,1.6203,1.62,1.6193,1.6138,1.6126,1.6122,1.6091,1.6095,1.6093,1.6092,1.6091,1.6059,1.606,0,0,0,0,0,0,1.634,1.6328,1.6265,1.6261,1.6291,1.6245,1.6236,1.6223,1.6177,1.6169,1.6193,1.6191,1.613,1.6124,1.6119,1.6113,1.6093,1.6091,1.6089,1.6059,1.6059,1.606,0,0,0,0,0,0,1.6342,1.6335,1.6268,1.6294,1.6284,1.6244,1.623,1.6222,1.6211,1.6169,1.6161,1.6189,1.6129,1.6122,1.6105,1.611,1.609,1.6088,1.6058,1.6059,1.606,1.6101,0,0,0,0,0,0,1.6345,1.6336,1.6334,1.6294,1.6283,1.6255,1.623,1.6221,1.6207,1.6203,1.6163,1.6156,1.6129,1.6109,1.6103,1.6107,1.6086,1.6057,1.6058,1.6059,1.6099,1.6103,1.6107,0,0,0,0,0,1.6348,1.6347,1.6334,1.6327,1.628,1.6255,1.6249,1.6219,1.6208,1.6206,1.6179,1.6157,1.6111,1.6107,1.61,1.6104,1.6057,1.6058,1.6059,1.6097,1.6102,1.6107,0,0,0,0,0,0,1.6388,1.6341,1.6326,1.6313,1.6289,1.6248,1.6244,1.6224,1.6202,1.6199,1.6162,1.6153,1.614,1.612,1.6117,1.6099,1.6081,1.6081,1.6112,1.6117,1.6121,1.6126,1.6084,0,0,0,0,0,1.6395,1.638,1.634,1.6332,1.632,1.6285,1.6273,1.6252,1.6224,1.6214,1.6186,1.616,1.614,1.6127,1.6106,1.6096,1.6087,1.6095,1.6099,1.6102,1.6103,1.6098,1.6101,1.6064,1.6064,1.6064,0,0,1.641,1.6383,1.6375,1.6339,1.6318,1.6303,1.6276,1.626,1.6249,1.6211,1.6193,1.6172,1.6141,1.6128,1.6121,1.6111,1.6111,1.6104,1.6107,1.6105,1.61,1.6103,1.6106,1.6065,1.6065,1.6064,0,0,1.6429,1.6407,1.6399,1.6379,1.6347,1.6324,1.6322,1.6285,1.627,1.6252,1.6224,1.6209,1.6175,1.6154,1.6139,1.6154,1.6133,1.6148,1.6168,1.6164,1.6167,1.6169,1.6176,1.6179,1.6148,1.6148,1.6149,0,1.6451,1.6428,1.6397,1.6384,1.6369,1.6336,1.6328,1.6309,1.6272,1.6263,1.6253,1.6211,1.6187,1.617,1.6174,1.6162,1.616,1.6152,1.6169,1.6171,1.6173,1.6179,1.6182,1.6151,1.615,1.615,1.615,0,1.6457,1.6442,1.6439,1.6406,1.6391,1.6381,1.6348,1.6337,1.6318,1.6295,1.6279,1.625,1.6223,1.6217,1.6197,1.6198,1.6193,1.6176,1.6158,1.6179,1.6184,1.6186,1.6154,1.6153,1.6152,1.6152,0,0,1.6498,1.6451,1.645,1.6436,1.64,1.6387,1.6376,1.6351,1.6343,1.6319,1.6309,1.6282,1.6267,1.6251,1.6228,1.6225,1.624,1.6209,1.6207,1.6217,1.6241,1.6255,1.6258,1.6226,1.6227,1.6227,1.6244,0,1.6513,1.6492,1.6465,1.6452,1.6438,1.6408,1.6398,1.6375,1.6354,1.6339,1.6316,1.6298,1.6279,1.6269,1.6264,1.624,1.6245,1.6238,1.6217,1.6217,1.6227,1.626,1.6273,1.6291,1.6246,1.6246,1.6246,0,1.6527,1.6507,1.6494,1.6462,1.6455,1.6447,1.6424,1.6409,1.6383,1.6369,1.6352,1.6328,1.6315,1.6299,1.6281,1.6277,1.6267,1.6253,1.6253,1.6251,1.6233,1.6259,1.6296,1.6299,1.6249,1.6248,1.6248,0,1.6561,1.653,1.6519,1.6508,1.6469,1.6465,1.6448,1.6422,1.641,1.6389,1.6381,1.6358,1.6346,1.633,1.6301,1.6292,1.6287,1.6268,1.6275,1.6276,1.6275,1.6276,1.6312,1.6268,1.6268,1.6268,1.6267,0,1.658,1.6574,1.6534,1.6527,1.652,1.6489,1.6482,1.6462,1.644,1.6429,1.64,1.6391,1.6353,1.6339,1.6317,1.6307,1.6301,1.6289,1.6283,1.6292,1.6294,1.6285,1.6284,1.6268,1.6268,1.6268,1.6268,0,1.6616,1.6589,1.6575,1.6541,1.6533,1.6529,1.6499,1.6492,1.6471,1.6457,1.6452,1.6419,1.6401,1.6371,1.6344,1.633,1.6324,1.6313,1.6333,1.633,1.6339,1.634,1.6372,1.6375,1.6328,1.6329,1.6329,0,1.6631,1.6626,1.6592,1.6584,1.6569,1.6555,1.6543,1.6513,1.6502,1.6473,1.6469,1.645,1.6433,1.6406,1.6379,1.6359,1.6349,1.6362,1.6345,1.6355,1.6351,1.6352,1.6352,1.6365,1.6366,1.6367,1.6367,0,1.6661,1.6648,1.6633,1.6614,1.6601,1.6583,1.6565,1.6559,1.6525,1.6514,1.6496,1.6483,1.6458,1.6439,1.6416,1.6398,1.6378,1.6373,1.6374,1.6383,1.6395,1.639,1.6345,1.6372,1.6371,1.6371,1.6371,1.6371,1.6687,1.6682,1.6658,1.6643,1.6626,1.661,1.6602,1.6581,1.6566,1.6544,1.6527,1.6511,1.6487,1.6454,1.6438,1.6425,1.6416,1.6416,1.6417,1.6418,1.6422,1.6397,1.6421,1.6421,1.642,1.642,1.642,0,1.6716,1.67,1.6686,1.6663,1.6651,1.6633,1.6613,1.6604,1.6591,1.6571,1.6555,1.6536,1.6519,1.6492,1.6472,1.6467,1.6457,1.6463,1.6464,1.6461,1.6431,1.6433,1.6472,1.6472,1.6472,1.6472,1.6472,1.6472,1.673,1.6722,1.6707,1.669,1.6673,1.6659,1.6649,1.6635,1.6619,1.6599,1.6586,1.6568,1.6546,1.6525,1.6508,1.6501,1.6495,1.6505,1.6494,1.6467,1.6462,1.6458,1.6459,1.6503,1.6503,1.6525,1.6525,1.6525]}]]